Time,TemperatureF,DewpointF,PressureIn,WindDirection,WindDirectionDegrees,WindSpeedMPH,WindSpeedGustMPH,Humidity,HourlyPrecipIn,Conditions,Clouds,dailyrainin,SoftwareType,DateUTC
2013-05-21 00:01:00,74.7,71.5,30.09,NW,315,4.9,4.9,90,0.53,CLR,,0.00,WeatherDisplay:10.37,2013-05-21 04:01:00,
2013-05-21 00:03:00,74.5,71.4,30.09,WNW,292,5.8,5.8,90,0.48,CLR,,0.00,WeatherDisplay:10.37,2013-05-21 04:03:00,
2013-05-21 00:05:00,74.3,71.2,30.09,NW,315,4.9,4.9,90,0.48,CLR,,0.00,WeatherDisplay:10.37,2013-05-21 04:05:00,
2013-05-21 00:10:00,74.1,71.0,30.09,NW,304,5.0,7.0,90,0.00,,,0.00,WeatherDisplay:10.37,2013-05-21 04:10:00,
2013-05-21 00:15:00,73.9,70.8,30.09,NW,315,3.5,3.5,90,0.41,CLR,,0.00,WeatherDisplay:10.37,2013-05-21 04:15:00,
2013-05-21 00:20:00,73.9,70.8,30.06,West,270,2.4,0.0,90,0.37,CLR,,0.00,WeatherDisplay:10.37,2013-05-21 04:20:00,
2013-05-21 00:25:00,73.9,70.8,30.06,SW,225,3.5,3.5,90,0.27,CLR,,0.00,WeatherDisplay:10.37,2013-05-21 04:25:00,
2013-05-21 00:30:00,73.9,70.8,30.06,NW,315,3.8,3.8,90,0.14,CLR,,0.00,WeatherDisplay:10.37,2013-05-21 04:30:00,
2013-05-21 00:35:00,73.9,70.8,30.06,West,270,3.5,3.5,90,0.03,CLR,,0.00,WeatherDisplay:10.37,2013-05-21 04:35:00,
2013-05-21 00:41:00,73.9,70.8,30.06,West,270,2.3,0.0,90,0.01,CLR,,0.00,WeatherDisplay:10.37,2013-05-21 04:41:00,
2013-05-21 00:46:00,73.0,70.3,30.06,NW,315,0.0,0.0,91,0.01,CLR,,0.00,WeatherDisplay:10.37,2013-05-21 04:46:00,
2013-05-21 00:51:00,72.9,70.1,30.06,NW,315,4.6,4.6,91,0.00,CLR,,0.00,WeatherDisplay:10.37,2013-05-21 04:51:00,
2013-05-21 00:56:00,73.0,70.3,30.06,West,270,1.2,0.0,91,0.00,CLR,,0.00,WeatherDisplay:10.37,2013-05-21 04:56:00,
2013-05-21 01:01:00,73.0,70.3,30.06,East,90,9.2,9.2,91,0.00,CLR,,0.00,WeatherDisplay:10.37,2013-05-21 05:01:00,
2013-05-21 01:06:00,73.2,70.4,30.06,ENE,68,7.8,7.8,91,0.00,CLR,,0.00,WeatherDisplay:10.37,2013-05-21 05:06:00,
2013-05-21 01:11:00,73.2,70.1,30.06,East,90,6.9,6.9,90,0.00,CLR,,0.00,WeatherDisplay:10.37,2013-05-21 05:11:00,
2013-05-21 01:16:00,73.2,70.1,30.06,South,180,12.7,12.7,90,0.00,CLR,,0.00,WeatherDisplay:10.37,2013-05-21 05:16:00,
2013-05-21 01:22:00,73.2,69.8,30.06,SSE,158,6.9,6.9,89,0.00,CLR,,0.00,WeatherDisplay:10.37,2013-05-21 05:22:00,
2013-05-21 01:27:00,73.4,70.0,30.06,SSE,158,8.1,8.1,89,0.00,CLR,,0.00,WeatherDisplay:10.37,2013-05-21 05:27:00,
2013-05-21 01:32:00,73.4,70.0,30.06,South,180,8.1,8.1,89,0.00,CLR,,0.00,WeatherDisplay:10.37,2013-05-21 05:32:00,
2013-05-21 01:37:00,73.8,70.3,30.06,SSE,158,4.6,4.6,89,0.00,CLR,,0.00,WeatherDisplay:10.37,2013-05-21 05:37:00,
2013-05-21 01:42:00,73.6,70.1,30.06,SE,135,7.1,7.1,89,0.00,CLR,,0.00,WeatherDisplay:10.37,2013-05-21 05:42:00,
2013-05-21 01:47:00,73.6,69.8,30.03,SE,135,5.9,5.9,88,0.00,CLR,,0.00,WeatherDisplay:10.37,2013-05-21 05:47:00,
2013-05-21 01:52:00,73.8,70.0,30.03,South,180,5.8,5.8,88,0.00,CLR,,0.00,WeatherDisplay:10.37,2013-05-21 05:52:00,
2013-05-21 01:57:00,73.8,69.6,30.03,SE,135,6.2,6.2,87,0.00,CLR,,0.00,WeatherDisplay:10.37,2013-05-21 05:57:00,
2013-05-21 02:03:00,73.9,69.8,30.03,SSW,202,9.2,9.2,87,0.00,CLR,,0.00,WeatherDisplay:10.37,2013-05-21 06:03:00,
2013-05-21 02:08:00,74.3,70.5,30.03,East,90,8.1,8.1,88,0.00,CLR,,0.00,WeatherDisplay:10.37,2013-05-21 06:08:00,
2013-05-21 02:13:00,74.3,70.5,30.03,East,90,5.8,6.0,88,0.00,CLR,,0.00,WeatherDisplay:10.37,2013-05-21 06:13:00,
2013-05-21 02:18:00,74.3,70.5,30.03,South,180,8.1,8.1,88,0.00,CLR,,0.00,WeatherDisplay:10.37,2013-05-21 06:18:00,
2013-05-21 02:23:00,74.5,70.7,30.03,NE,45,9.2,9.2,88,0.00,CLR,,0.00,WeatherDisplay:10.37,2013-05-21 06:23:00,
2013-05-21 02:28:00,74.5,70.7,30.03,East,90,8.7,8.7,88,0.00,CLR,,0.00,WeatherDisplay:10.37,2013-05-21 06:28:00,
2013-05-21 02:33:00,74.3,70.2,30.00,East,90,9.2,9.2,87,0.00,CLR,,0.00,WeatherDisplay:10.37,2013-05-21 06:33:00,
2013-05-21 02:38:00,74.1,70.0,30.00,East,90,10.4,10.4,87,0.00,CLR,,0.00,WeatherDisplay:10.37,2013-05-21 06:38:00,
2013-05-21 02:43:00,74.1,69.7,30.00,East,90,8.1,8.1,86,0.00,CLR,,0.00,WeatherDisplay:10.37,2013-05-21 06:43:00,
2013-05-21 02:49:00,74.3,70.2,30.00,ENE,68,12.7,12.7,87,0.00,CLR,,0.00,WeatherDisplay:10.37,2013-05-21 06:49:00,
2013-05-21 02:54:00,74.5,70.4,30.00,NE,45,8.1,8.1,87,0.00,CLR,,0.00,WeatherDisplay:10.37,2013-05-21 06:54:00,
2013-05-21 02:59:00,74.1,70.0,30.00,East,90,10.9,10.9,87,0.00,CLR,,0.00,WeatherDisplay:10.37,2013-05-21 06:59:00,
2013-05-21 03:04:00,74.1,70.0,30.00,ENE,68,11.8,11.8,87,0.00,CLR,,0.00,WeatherDisplay:10.37,2013-05-21 07:04:00,
2013-05-21 03:09:00,74.1,70.0,30.00,East,90,9.2,9.2,87,0.00,CLR,,0.00,WeatherDisplay:10.37,2013-05-21 07:09:00,
2013-05-21 03:15:00,74.1,69.7,30.00,SW,225,10.4,10.4,86,0.00,CLR,,0.00,WeatherDisplay:10.37,2013-05-21 07:15:00,
2013-05-21 03:20:00,74.1,69.7,30.00,ESE,112,9.2,9.2,86,0.00,CLR,,0.00,WeatherDisplay:10.37,2013-05-21 07:20:00,
2013-05-21 03:25:00,74.1,69.7,30.00,East,99,5.0,10.0,86,0.00,CLR,,0.00,WeatherDisplay:10.37,2013-05-21 07:25:00,
2013-05-21 03:30:00,74.3,69.8,30.00,North,0,5.8,5.8,86,0.00,CLR,,0.00,WeatherDisplay:10.37,2013-05-21 07:30:00,
2013-05-21 03:35:00,74.1,69.7,30.00,ESE,106,3.0,9.0,86,0.00,,,0.00,WeatherDisplay:10.37,2013-05-21 07:35:00,
2013-05-21 03:40:00,74.1,69.7,30.00,South,180,5.8,5.8,86,0.00,CLR,,0.00,WeatherDisplay:10.37,2013-05-21 07:40:00,
2013-05-21 03:45:00,74.3,69.5,30.00,East,90,8.1,8.1,85,0.00,CLR,,0.00,WeatherDisplay:10.37,2013-05-21 07:45:00,
2013-05-21 03:50:00,74.3,69.5,29.97,South,180,8.1,8.1,85,0.00,CLR,,0.00,WeatherDisplay:10.37,2013-05-21 07:50:00,
2013-05-21 03:55:00,74.5,70.0,29.97,East,90,8.1,8.1,86,0.00,CLR,,0.00,WeatherDisplay:10.37,2013-05-21 07:55:00,
2013-05-21 04:00:00,74.5,70.0,29.97,East,90,8.1,8.1,86,0.00,CLR,,0.00,WeatherDisplay:10.37,2013-05-21 08:00:00,
2013-05-21 04:05:00,74.7,70.5,29.94,ESE,112,9.2,9.2,87,0.00,CLR,,0.00,WeatherDisplay:10.37,2013-05-21 08:05:00,
2013-05-21 04:11:00,74.7,70.2,29.94,SSE,158,8.1,8.1,86,0.00,CLR,,0.00,WeatherDisplay:10.37,2013-05-21 08:11:00,
2013-05-21 04:16:00,74.7,70.2,29.97,SSW,202,10.4,10.4,86,0.00,CLR,,0.00,WeatherDisplay:10.37,2013-05-21 08:16:00,
2013-05-21 04:21:00,74.8,70.4,29.97,South,180,10.4,10.4,86,0.00,CLR,,0.00,WeatherDisplay:10.37,2013-05-21 08:21:00,
2013-05-21 04:26:00,74.8,70.0,29.97,ESE,112,6.9,6.9,85,0.00,CLR,,0.00,WeatherDisplay:10.37,2013-05-21 08:26:00,
2013-05-21 04:31:00,74.8,70.4,29.97,ESE,112,8.1,8.1,86,0.00,CLR,,0.00,WeatherDisplay:10.37,2013-05-21 08:31:00,
2013-05-21 04:36:00,74.8,70.4,29.97,SE,135,8.7,8.7,86,0.00,CLR,,0.00,WeatherDisplay:10.37,2013-05-21 08:36:00,
2013-05-21 04:42:00,74.8,70.4,29.97,SSE,158,8.1,8.1,86,0.00,CLR,,0.00,WeatherDisplay:10.37,2013-05-21 08:42:00,
2013-05-21 04:47:00,75.0,70.5,29.97,SE,135,10.4,10.4,86,0.00,CLR,,0.00,WeatherDisplay:10.37,2013-05-21 08:47:00,
2013-05-21 04:52:00,74.8,70.4,29.97,East,90,9.2,9.2,86,0.00,CLR,,0.00,WeatherDisplay:10.37,2013-05-21 08:52:00,
2013-05-21 04:57:00,75.0,70.2,29.97,SE,135,8.1,8.1,85,0.00,CLR,,0.00,WeatherDisplay:10.37,2013-05-21 08:57:00,
2013-05-21 05:02:00,75.0,70.2,29.97,SE,135,8.1,8.1,85,0.00,CLR,,0.00,WeatherDisplay:10.37,2013-05-21 09:02:00,
2013-05-21 05:08:00,75.2,70.4,29.97,SE,135,9.2,9.2,85,0.00,CLR,,0.00,WeatherDisplay:10.37,2013-05-21 09:08:00,
2013-05-21 05:13:00,75.2,70.4,29.97,SE,135,9.2,9.2,85,0.00,CLR,,0.00,WeatherDisplay:10.37,2013-05-21 09:13:00,
2013-05-21 05:18:00,75.4,70.6,29.97,SSE,158,6.9,6.9,85,0.00,CLR,,0.00,WeatherDisplay:10.37,2013-05-21 09:18:00,
2013-05-21 05:23:00,75.2,70.4,29.97,SSE,158,4.9,4.9,85,0.00,CLR,,0.00,WeatherDisplay:10.37,2013-05-21 09:23:00,
2013-05-21 05:28:00,75.2,70.4,29.97,South,180,8.7,8.7,85,0.00,CLR,,0.00,WeatherDisplay:10.37,2013-05-21 09:28:00,
2013-05-21 05:33:00,75.2,70.0,29.97,South,180,4.7,5.9,84,0.00,CLR,,0.00,WeatherDisplay:10.37,2013-05-21 09:33:00,
2013-05-21 05:38:00,75.2,70.0,29.97,South,180,4.6,5.4,84,0.00,CLR,,0.00,WeatherDisplay:10.37,2013-05-21 09:38:00,
2013-05-21 05:44:00,75.4,70.2,29.97,South,180,5.9,5.9,84,0.00,CLR,,0.00,WeatherDisplay:10.37,2013-05-21 09:44:00,
2013-05-21 05:49:00,75.4,70.2,29.97,South,180,7.6,7.6,84,0.00,CLR,,0.00,WeatherDisplay:10.37,2013-05-21 09:49:00,
2013-05-21 05:54:00,75.2,69.7,29.97,East,90,7.4,7.4,83,0.00,CLR,,0.00,WeatherDisplay:10.37,2013-05-21 09:54:00,
2013-05-21 05:59:00,75.2,69.7,29.97,South,180,5.8,5.8,83,0.00,CLR,,0.00,WeatherDisplay:10.37,2013-05-21 09:59:00,
2013-05-21 06:04:00,75.2,70.0,30.00,South,180,8.1,8.1,84,0.00,CLR,,0.00,WeatherDisplay:10.37,2013-05-21 10:04:00,
2013-05-21 06:09:00,75.0,69.9,30.00,West,270,6.9,6.9,84,0.00,CLR,,0.00,WeatherDisplay:10.37,2013-05-21 10:09:00,
2013-05-21 06:14:00,75.0,69.9,30.00,SW,225,3.5,3.5,84,0.00,CLR,,0.00,WeatherDisplay:10.37,2013-05-21 10:14:00,
2013-05-21 06:19:00,75.2,70.0,30.00,SE,135,5.9,5.9,84,0.00,CLR,,0.00,WeatherDisplay:10.37,2013-05-21 10:19:00,
2013-05-21 06:24:00,75.0,69.9,30.00,South,180,4.6,4.6,84,0.00,CLR,,0.00,WeatherDisplay:10.37,2013-05-21 10:24:00,
2013-05-21 06:30:00,75.4,70.2,30.00,SE,135,4.7,4.7,84,0.00,CLR,,0.00,WeatherDisplay:10.37,2013-05-21 10:30:00,
2013-05-21 06:35:00,75.2,69.7,30.03,SSE,158,5.8,5.8,83,0.00,CLR,,0.00,WeatherDisplay:10.37,2013-05-21 10:35:00,
2013-05-21 06:40:00,75.2,69.7,30.03,SW,225,5.4,5.4,83,0.00,CLR,,0.00,WeatherDisplay:10.37,2013-05-21 10:40:00,
2013-05-21 06:45:00,75.2,69.7,30.03,South,180,3.5,3.5,83,0.00,CLR,,0.00,WeatherDisplay:10.37,2013-05-21 10:45:00,
2013-05-21 06:50:00,75.2,69.7,30.00,SSE,149,2.0,6.0,83,0.00,CLR,,0.00,WeatherDisplay:10.37,2013-05-21 10:50:00,
2013-05-21 06:55:00,75.2,70.0,30.00,South,180,4.7,4.7,84,0.00,CLR,,0.00,WeatherDisplay:10.37,2013-05-21 10:55:00,
2013-05-21 07:00:00,75.2,70.0,30.00,SE,135,5.4,5.4,84,0.00,CLR,,0.00,WeatherDisplay:10.37,2013-05-21 11:00:00,
2013-05-21 07:05:00,75.4,70.2,30.03,South,180,5.8,5.8,84,0.00,CLR,,0.00,WeatherDisplay:10.37,2013-05-21 11:05:00,
2013-05-21 07:10:00,75.6,70.4,30.03,South,180,6.4,6.4,84,0.00,CLR,,0.00,WeatherDisplay:10.37,2013-05-21 11:10:00,
2013-05-21 07:16:00,75.6,70.4,30.03,South,180,4.9,4.9,84,0.00,CLR,,0.00,WeatherDisplay:10.37,2013-05-21 11:16:00,
2013-05-21 07:21:00,75.4,70.2,30.03,South,180,4.6,4.6,84,0.00,CLR,,0.00,WeatherDisplay:10.37,2013-05-21 11:21:00,
2013-05-21 07:26:00,75.6,70.0,30.03,West,270,6.9,6.9,83,0.00,CLR,,0.00,WeatherDisplay:10.37,2013-05-21 11:26:00,
2013-05-21 07:31:00,75.7,70.2,30.03,South,180,5.8,5.8,83,0.00,CLR,,0.00,WeatherDisplay:10.37,2013-05-21 11:31:00,
2013-05-21 07:36:00,75.6,69.7,30.03,ESE,112,6.9,6.9,82,0.00,CLR,,0.00,WeatherDisplay:10.37,2013-05-21 11:36:00,
2013-05-21 07:41:00,75.7,69.9,30.03,South,180,6.9,6.9,82,0.00,CLR,,0.00,WeatherDisplay:10.37,2013-05-21 11:41:00,
2013-05-21 07:47:00,75.9,70.4,30.03,South,180,5.8,5.8,83,0.00,CLR,,0.00,WeatherDisplay:10.37,2013-05-21 11:47:00,
2013-05-21 07:52:00,76.3,70.7,30.03,South,180,5.8,5.8,83,0.00,CLR,,0.00,WeatherDisplay:10.37,2013-05-21 11:52:00,
2013-05-21 07:57:00,76.6,70.7,30.03,SSE,158,6.9,6.9,82,0.00,CLR,,0.00,WeatherDisplay:10.37,2013-05-21 11:57:00,
2013-05-21 08:02:00,77.0,71.1,30.03,SE,135,8.1,8.1,82,0.00,CLR,,0.00,WeatherDisplay:10.37,2013-05-21 12:02:00,
2013-05-21 08:07:00,76.8,70.9,30.03,SW,225,4.6,4.6,82,0.00,CLR,,0.00,WeatherDisplay:10.37,2013-05-21 12:07:00,
2013-05-21 08:12:00,76.6,70.7,30.03,SE,135,5.8,5.8,82,0.00,CLR,,0.00,WeatherDisplay:10.37,2013-05-21 12:12:00,
2013-05-21 08:17:00,76.8,70.9,30.03,South,180,4.6,4.6,82,0.00,CLR,,0.00,WeatherDisplay:10.37,2013-05-21 12:17:00,
2013-05-21 08:22:00,76.6,70.4,30.03,South,180,4.0,4.0,81,0.00,CLR,,0.00,WeatherDisplay:10.37,2013-05-21 12:22:00,
2013-05-21 08:28:00,76.8,70.5,30.03,East,90,4.6,4.6,81,0.00,CLR,,0.00,WeatherDisplay:10.37,2013-05-21 12:28:00,
2013-05-21 08:33:00,77.0,70.7,30.03,East,90,4.6,4.6,81,0.00,CLR,,0.00,WeatherDisplay:10.37,2013-05-21 12:33:00,
2013-05-21 08:38:00,77.0,70.4,30.03,South,180,4.6,4.6,80,0.00,CLR,,0.00,WeatherDisplay:10.37,2013-05-21 12:38:00,
2013-05-21 08:43:00,77.2,70.5,30.03,SE,135,6.9,6.9,80,0.00,CLR,,0.00,WeatherDisplay:10.37,2013-05-21 12:43:00,
2013-05-21 08:48:00,77.5,70.9,30.06,South,180,6.9,6.9,80,0.00,CLR,,0.00,WeatherDisplay:10.37,2013-05-21 12:48:00,
2013-05-21 08:53:00,77.5,70.9,30.06,South,180,6.0,6.0,80,0.00,CLR,,0.00,WeatherDisplay:10.37,2013-05-21 12:53:00,
2013-05-21 08:58:00,77.4,70.7,30.06,South,180,7.4,7.4,80,0.00,CLR,,0.00,WeatherDisplay:10.37,2013-05-21 12:58:00,
2013-05-21 09:04:00,77.4,70.3,30.06,South,180,6.9,6.9,79,0.00,CLR,,0.00,WeatherDisplay:10.37,2013-05-21 13:04:00,
2013-05-21 09:09:00,77.4,70.3,30.06,East,90,5.4,5.4,79,0.00,CLR,,0.00,WeatherDisplay:10.37,2013-05-21 13:09:00,
2013-05-21 09:14:00,77.4,70.3,30.06,SSW,202,8.1,8.1,79,0.00,CLR,,0.00,WeatherDisplay:10.37,2013-05-21 13:14:00,
2013-05-21 09:19:00,77.4,70.3,30.03,SW,225,10.0,10.0,79,0.00,CLR,,0.00,WeatherDisplay:10.37,2013-05-21 13:19:00,
2013-05-21 09:24:00,77.4,70.3,30.03,South,180,8.5,8.5,79,0.00,CLR,,0.00,WeatherDisplay:10.37,2013-05-21 13:24:00,
2013-05-21 09:29:00,77.2,70.2,30.03,South,180,4.6,4.6,79,0.00,CLR,,0.00,WeatherDisplay:10.37,2013-05-21 13:29:00,
2013-05-21 09:34:00,77.2,70.2,30.06,South,180,4.6,4.6,79,0.00,CLR,,0.00,WeatherDisplay:10.37,2013-05-21 13:34:00,
2013-05-21 09:40:00,77.2,70.2,30.06,SSW,202,4.6,4.6,79,0.00,CLR,,0.00,WeatherDisplay:10.37,2013-05-21 13:40:00,
2013-05-21 09:45:00,77.0,70.0,30.06,SE,135,4.6,4.6,79,0.00,CLR,,0.00,WeatherDisplay:10.37,2013-05-21 13:45:00,
2013-05-21 09:50:00,77.4,70.3,30.03,NE,45,2.3,2.3,79,0.00,CLR,,0.00,WeatherDisplay:10.37,2013-05-21 13:50:00,
2013-05-21 09:55:00,77.5,70.5,30.03,East,90,3.5,3.5,79,0.00,CLR,,0.00,WeatherDisplay:10.37,2013-05-21 13:55:00,
2013-05-21 10:00:00,77.7,70.7,30.03,SE,139,2.0,5.0,79,0.00,CLR,,0.00,WeatherDisplay:10.37,2013-05-21 14:00:00,
2013-05-21 10:06:00,78.1,71.0,30.06,East,90,3.5,3.5,79,0.00,CLR,,0.00,WeatherDisplay:10.37,2013-05-21 14:06:00,
2013-05-21 10:11:00,78.1,71.0,30.06,West,270,2.3,0.0,79,0.00,CLR,,0.00,WeatherDisplay:10.37,2013-05-21 14:11:00,
2013-05-21 10:16:00,78.1,71.0,30.06,NW,315,0.0,0.0,79,0.00,CLR,,0.00,WeatherDisplay:10.37,2013-05-21 14:16:00,
2013-05-21 10:21:00,78.3,71.2,30.06,NE,45,2.3,2.3,79,0.00,CLR,,0.00,WeatherDisplay:10.37,2013-05-21 14:21:00,
2013-05-21 10:26:00,78.3,71.2,30.06,North,0,3.5,3.5,79,0.00,CLR,,0.00,WeatherDisplay:10.37,2013-05-21 14:26:00,
2013-05-21 10:31:00,78.6,71.6,30.06,ESE,112,5.4,5.4,79,0.00,CLR,,0.00,WeatherDisplay:10.37,2013-05-21 14:31:00,
2013-05-21 10:36:00,78.4,71.4,30.06,North,0,9.2,9.2,79,0.00,CLR,,0.00,WeatherDisplay:10.37,2013-05-21 14:36:00,
2013-05-21 10:41:00,78.8,71.7,30.06,East,90,6.9,6.9,79,0.00,CLR,,0.00,WeatherDisplay:10.37,2013-05-21 14:41:00,
2013-05-21 10:47:00,78.8,71.4,30.09,ENE,68,6.0,6.0,78,0.00,CLR,,0.00,WeatherDisplay:10.37,2013-05-21 14:47:00,
2013-05-21 10:52:00,79.0,71.5,30.09,NE,45,5.8,5.8,78,0.00,CLR,,0.00,WeatherDisplay:10.37,2013-05-21 14:52:00,
2013-05-21 10:57:00,79.5,72.1,30.09,ENE,68,6.9,6.9,78,0.00,CLR,,0.00,WeatherDisplay:10.37,2013-05-21 14:57:00,
2013-05-21 11:02:00,80.2,72.8,30.06,NNE,22,5.8,5.8,78,0.00,CLR,,0.00,WeatherDisplay:10.37,2013-05-21 15:02:00,
2013-05-21 11:07:00,79.9,72.0,30.06,East,90,8.1,8.1,77,0.00,CLR,,0.00,WeatherDisplay:10.37,2013-05-21 15:07:00,
2013-05-21 11:12:00,79.5,72.1,30.06,East,90,5.6,5.6,78,0.00,CLR,,0.00,WeatherDisplay:10.37,2013-05-21 15:12:00,
2013-05-21 11:17:00,79.2,71.7,30.09,East,90,4.6,4.6,78,0.00,CLR,,0.00,WeatherDisplay:10.37,2013-05-21 15:17:00,
2013-05-21 11:22:00,78.8,71.4,30.09,South,180,6.9,6.9,78,0.00,CLR,,0.00,WeatherDisplay:10.37,2013-05-21 15:22:00,
2013-05-21 11:27:00,78.8,71.0,30.09,SE,135,4.7,4.7,77,0.00,CLR,,0.00,WeatherDisplay:10.37,2013-05-21 15:27:00,
2013-05-21 11:33:00,78.8,71.4,30.09,SW,225,4.6,4.6,78,0.00,CLR,,0.00,WeatherDisplay:10.37,2013-05-21 15:33:00,
2013-05-21 11:38:00,78.4,71.4,30.09,SW,225,6.9,6.9,79,0.02,RA,,0.02,WeatherDisplay:10.37,2013-05-21 15:38:00,
2013-05-21 11:43:00,78.3,71.2,30.09,SE,135,4.6,4.6,79,0.03,RA,,0.04,WeatherDisplay:10.37,2013-05-21 15:43:00,
2013-05-21 11:48:00,78.4,71.4,30.06,SW,225,3.5,3.5,79,0.05,RA,,0.05,WeatherDisplay:10.37,2013-05-21 15:48:00,
2013-05-21 11:53:00,78.6,72.3,30.06,East,90,3.5,3.5,81,0.05,RA,,0.05,WeatherDisplay:10.37,2013-05-21 15:53:00,
2013-05-21 11:58:00,79.2,73.2,30.06,South,180,3.1,0.0,82,0.05,CLR,,0.05,WeatherDisplay:10.37,2013-05-21 15:58:00,
2013-05-21 12:03:00,79.0,72.6,30.06,SSW,202,5.8,5.8,81,0.05,CLR,,0.05,WeatherDisplay:10.37,2013-05-21 16:03:00,
2013-05-21 12:09:00,78.8,72.5,30.06,SSE,158,5.8,5.8,81,0.05,CLR,,0.05,WeatherDisplay:10.37,2013-05-21 16:09:00,
2013-05-21 12:14:00,78.4,72.1,30.06,South,180,4.6,4.6,81,0.05,CLR,,0.05,WeatherDisplay:10.37,2013-05-21 16:14:00,
2013-05-21 12:19:00,78.3,72.3,30.06,SE,135,5.8,5.8,82,0.05,CLR,,0.05,WeatherDisplay:10.37,2013-05-21 16:19:00,
2013-05-21 12:24:00,78.3,72.3,30.06,East,90,2.3,2.3,82,0.05,CLR,,0.05,WeatherDisplay:10.37,2013-05-21 16:24:00,
2013-05-21 12:29:00,78.3,72.3,30.06,SE,135,2.9,2.9,82,0.05,CLR,,0.05,WeatherDisplay:10.37,2013-05-21 16:29:00,
2013-05-21 12:34:00,78.1,72.1,30.03,South,180,4.6,4.6,82,0.05,CLR,,0.05,WeatherDisplay:10.37,2013-05-21 16:34:00,
2013-05-21 12:39:00,78.1,72.1,30.03,South,180,5.8,5.8,82,0.03,CLR,,0.05,WeatherDisplay:10.37,2013-05-21 16:39:00,
2013-05-21 12:45:00,78.3,71.9,30.03,SE,135,4.6,4.6,81,0.01,CLR,,0.05,WeatherDisplay:10.37,2013-05-21 16:45:00,
2013-05-21 12:50:00,79.3,73.0,30.03,SSE,158,3.6,3.6,81,0.00,CLR,,0.05,WeatherDisplay:10.37,2013-05-21 16:50:00,
2013-05-21 12:55:00,79.9,73.5,30.03,SE,145,2.0,6.0,81,0.00,CLR,,0.05,WeatherDisplay:10.37,2013-05-21 16:55:00,
2013-05-21 13:00:00,80.2,73.5,30.03,South,180,5.8,5.8,80,0.00,CLR,,0.05,WeatherDisplay:10.37,2013-05-21 17:00:00,
2013-05-21 13:05:00,80.2,73.5,30.03,South,182,3.0,6.0,80,0.00,CLR,,0.05,WeatherDisplay:10.37,2013-05-21 17:05:00,
2013-05-21 13:10:00,80.2,73.1,30.03,SE,144,5.0,6.0,79,0.00,CLR,,0.05,WeatherDisplay:10.37,2013-05-21 17:10:00,
2013-05-21 13:15:00,80.2,73.1,30.03,NE,45,5.8,5.8,79,0.00,CLR,,0.05,WeatherDisplay:10.37,2013-05-21 17:15:00,
2013-05-21 13:20:00,80.3,73.2,30.03,SE,138,3.0,7.0,79,0.00,CLR,,0.05,WeatherDisplay:10.37,2013-05-21 17:20:00,
2013-05-21 13:25:00,81.0,73.8,30.03,SSE,158,9.2,9.2,79,0.00,CLR,,0.05,WeatherDisplay:10.37,2013-05-21 17:25:00,
2013-05-21 13:30:00,81.1,73.6,30.03,SE,135,9.2,9.2,78,0.00,CLR,,0.05,WeatherDisplay:10.37,2013-05-21 17:30:00,
2013-05-21 13:35:00,81.3,73.4,30.03,South,180,9.2,9.2,77,0.00,CLR,,0.05,WeatherDisplay:10.37,2013-05-21 17:35:00,
2013-05-21 13:40:00,81.7,73.8,30.03,West,270,5.8,5.8,77,0.00,CLR,,0.05,WeatherDisplay:10.37,2013-05-21 17:40:00,
2013-05-21 13:45:00,81.9,73.5,30.03,SE,141,6.0,6.0,76,0.00,CLR,,0.05,WeatherDisplay:10.37,2013-05-21 17:45:00,
2013-05-21 13:50:00,82.0,73.7,30.00,NE,45,9.2,9.2,76,0.00,CLR,,0.05,WeatherDisplay:10.37,2013-05-21 17:50:00,
2013-05-21 13:55:00,81.7,73.0,30.00,ESE,112,5.8,5.8,75,0.00,CLR,,0.05,WeatherDisplay:10.37,2013-05-21 17:55:00,
2013-05-21 14:00:00,81.9,73.2,30.03,East,90,3.5,3.6,75,0.00,CLR,,0.05,WeatherDisplay:10.37,2013-05-21 18:00:00,
2013-05-21 14:05:00,81.7,73.0,30.03,SSE,158,5.8,5.8,75,0.00,CLR,,0.05,WeatherDisplay:10.37,2013-05-21 18:05:00,
2013-05-21 14:10:00,81.7,72.6,30.03,South,180,4.9,4.9,74,0.00,CLR,,0.05,WeatherDisplay:10.37,2013-05-21 18:10:00,
2013-05-21 14:15:00,81.9,72.8,30.03,SE,135,4.6,4.6,74,0.00,CLR,,0.05,WeatherDisplay:10.37,2013-05-21 18:15:00,
2013-05-21 14:20:00,82.4,72.9,30.03,ESE,112,6.2,6.2,73,0.00,CLR,,0.05,WeatherDisplay:10.37,2013-05-21 18:20:00,
2013-05-21 14:25:00,82.4,72.5,30.03,SE,135,7.6,7.6,72,0.00,CLR,,0.05,WeatherDisplay:10.37,2013-05-21 18:25:00,
2013-05-21 14:30:00,82.4,72.0,30.03,ESE,112,11.5,11.5,71,0.00,CLR,,0.05,WeatherDisplay:10.37,2013-05-21 18:30:00,
2013-05-21 14:35:00,82.0,71.7,30.03,SE,135,7.4,7.4,71,0.00,CLR,,0.05,WeatherDisplay:10.37,2013-05-21 18:35:00,
2013-05-21 14:41:00,81.9,71.5,30.03,SE,135,7.1,7.1,71,0.00,CLR,,0.05,WeatherDisplay:10.37,2013-05-21 18:41:00,
2013-05-21 14:46:00,82.4,72.5,30.03,East,90,3.5,3.5,72,0.00,CLR,,0.05,WeatherDisplay:10.37,2013-05-21 18:46:00,
2013-05-21 14:51:00,82.9,72.6,30.03,ENE,68,5.8,5.8,71,0.00,CLR,,0.05,WeatherDisplay:10.37,2013-05-21 18:51:00,
2013-05-21 14:56:00,82.9,72.1,30.03,NE,45,3.8,3.8,70,0.00,CLR,,0.05,WeatherDisplay:10.37,2013-05-21 18:56:00,
2013-05-21 15:01:00,82.9,71.7,30.00,East,90,6.4,6.4,69,0.00,CLR,,0.05,WeatherDisplay:10.37,2013-05-21 19:01:00,
2013-05-21 15:07:00,82.9,70.9,30.00,South,180,8.1,8.1,67,0.00,CLR,,0.05,WeatherDisplay:10.37,2013-05-21 19:07:00,
2013-05-21 15:12:00,83.5,71.8,30.00,SSE,158,3.5,3.5,68,0.00,CLR,,0.05,WeatherDisplay:10.37,2013-05-21 19:12:00,
2013-05-21 15:17:00,83.5,71.8,30.00,East,90,5.8,5.8,68,0.00,CLR,,0.05,WeatherDisplay:10.37,2013-05-21 19:17:00,
2013-05-21 15:22:00,84.0,72.8,30.00,SE,135,3.6,3.6,69,0.00,CLR,,0.05,WeatherDisplay:10.37,2013-05-21 19:22:00,
2013-05-21 15:28:00,83.7,72.0,30.00,East,90,9.2,9.2,68,0.00,CLR,,0.05,WeatherDisplay:10.37,2013-05-21 19:28:00,
2013-05-21 15:33:00,83.3,72.1,30.00,SSE,158,9.2,9.2,69,0.00,CLR,,0.05,WeatherDisplay:10.37,2013-05-21 19:33:00,
2013-05-21 15:38:00,82.9,71.7,30.00,ENE,68,8.1,8.1,69,0.00,CLR,,0.05,WeatherDisplay:10.37,2013-05-21 19:38:00,
2013-05-21 15:43:00,83.1,71.9,30.00,SSE,158,6.9,6.9,69,0.00,CLR,,0.05,WeatherDisplay:10.37,2013-05-21 19:43:00,
2013-05-21 15:48:00,83.8,72.6,29.97,SSE,158,8.5,8.5,69,0.00,CLR,,0.05,WeatherDisplay:10.37,2013-05-21 19:48:00,
2013-05-21 15:53:00,84.2,72.9,29.97,East,90,10.2,10.2,69,0.00,CLR,,0.05,WeatherDisplay:10.37,2013-05-21 19:53:00,
2013-05-21 15:59:00,83.8,71.7,29.97,SE,135,6.9,6.9,67,0.00,CLR,,0.05,WeatherDisplay:10.37,2013-05-21 19:59:00,
2013-05-21 16:04:00,83.5,70.9,30.00,SE,135,6.9,6.9,66,0.00,CLR,,0.05,WeatherDisplay:10.37,2013-05-21 20:04:00,
2013-05-21 16:09:00,83.1,71.0,30.00,SSE,158,10.4,10.4,67,0.00,CLR,,0.05,WeatherDisplay:10.37,2013-05-21 20:09:00,
2013-05-21 16:14:00,82.9,71.3,30.00,NE,45,9.2,9.2,68,0.00,CLR,,0.05,WeatherDisplay:10.37,2013-05-21 20:14:00,
2013-05-21 16:19:00,83.8,72.6,29.94,SE,135,5.8,5.8,69,0.00,CLR,,0.05,WeatherDisplay:10.37,2013-05-21 20:19:00,
2013-05-21 16:24:00,83.5,71.4,29.94,ESE,112,8.1,8.1,67,0.00,CLR,,0.05,WeatherDisplay:10.37,2013-05-21 20:24:00,
2013-05-21 16:29:00,82.9,70.9,29.94,SE,135,12.5,12.5,67,0.00,CLR,,0.05,WeatherDisplay:10.37,2013-05-21 20:29:00,
2013-05-21 16:35:00,84.0,72.3,29.97,SW,225,5.8,5.8,68,0.00,CLR,,0.05,WeatherDisplay:10.37,2013-05-21 20:35:00,
2013-05-21 16:40:00,83.7,72.0,29.97,ENE,68,6.9,6.9,68,0.00,CLR,,0.05,WeatherDisplay:10.37,2013-05-21 20:40:00,
2013-05-21 16:45:00,83.8,71.7,29.97,East,90,9.2,9.2,67,0.00,CLR,,0.05,WeatherDisplay:10.37,2013-05-21 20:45:00,
2013-05-21 16:50:00,84.4,72.2,29.97,SW,225,8.1,8.1,67,0.00,CLR,,0.05,WeatherDisplay:10.37,2013-05-21 20:50:00,
2013-05-21 16:55:00,84.6,72.4,29.97,South,180,4.6,4.6,67,0.00,CLR,,0.05,WeatherDisplay:10.37,2013-05-21 20:55:00,
2013-05-21 17:00:00,84.2,72.0,29.97,South,180,6.2,6.2,67,0.00,CLR,,0.05,WeatherDisplay:10.37,2013-05-21 21:00:00,
2013-05-21 17:05:00,84.2,72.0,29.97,South,180,10.4,10.4,67,0.00,CLR,,0.05,WeatherDisplay:10.37,2013-05-21 21:05:00,
2013-05-21 17:11:00,83.3,70.8,29.97,ENE,68,6.9,6.9,66,0.00,CLR,,0.05,WeatherDisplay:10.37,2013-05-21 21:11:00,
2013-05-21 17:16:00,84.0,71.4,29.97,ENE,68,10.4,10.4,66,0.00,CLR,,0.05,WeatherDisplay:10.37,2013-05-21 21:16:00,
2013-05-21 17:21:00,84.4,71.3,29.97,ESE,112,10.4,10.4,65,0.00,CLR,,0.05,WeatherDisplay:10.37,2013-05-21 21:21:00,
2013-05-21 17:26:00,84.2,70.7,29.97,WSW,248,9.2,9.2,64,0.00,CLR,,0.05,WeatherDisplay:10.37,2013-05-21 21:26:00,
2013-05-21 17:31:00,84.9,71.4,29.97,East,90,8.1,8.1,64,0.00,CLR,,0.05,WeatherDisplay:10.37,2013-05-21 21:31:00,
2013-05-21 17:36:00,84.9,71.4,29.97,SE,135,11.5,11.5,64,0.00,CLR,,0.05,WeatherDisplay:10.37,2013-05-21 21:36:00,
2013-05-21 17:42:00,84.6,70.6,29.97,East,90,8.1,8.1,63,0.00,CLR,,0.05,WeatherDisplay:10.37,2013-05-21 21:42:00,
2013-05-21 17:47:00,83.8,70.4,29.97,ESE,112,10.5,10.5,64,0.00,CLR,,0.05,WeatherDisplay:10.37,2013-05-21 21:47:00,
2013-05-21 17:52:00,83.3,69.8,29.97,SE,135,6.0,6.0,64,0.00,CLR,,0.05,WeatherDisplay:10.37,2013-05-21 21:52:00,
2013-05-21 17:57:00,82.6,69.2,29.97,South,180,9.2,9.2,64,0.00,CLR,,0.05,WeatherDisplay:10.37,2013-05-21 21:57:00,
2013-05-21 18:02:00,82.6,69.6,29.97,SSE,158,9.2,9.2,65,0.00,CLR,,0.05,WeatherDisplay:10.37,2013-05-21 22:02:00,
2013-05-21 18:07:00,82.8,69.8,29.97,WSW,248,6.9,6.9,65,0.00,CLR,,0.05,WeatherDisplay:10.37,2013-05-21 22:07:00,
2013-05-21 18:12:00,82.4,69.4,29.97,South,180,6.9,6.9,65,0.00,CLR,,0.05,WeatherDisplay:10.37,2013-05-21 22:12:00,
2013-05-21 18:17:00,82.0,69.1,29.94,SE,135,4.6,4.6,65,0.00,CLR,,0.05,WeatherDisplay:10.37,2013-05-21 22:17:00,
2013-05-21 18:22:00,81.9,68.9,29.94,East,90,5.8,5.8,65,0.00,CLR,,0.05,WeatherDisplay:10.37,2013-05-21 22:22:00,
2013-05-21 18:27:00,81.9,69.4,29.94,SE,135,7.4,7.4,66,0.00,CLR,,0.05,WeatherDisplay:10.37,2013-05-21 22:27:00,
2013-05-21 18:33:00,81.3,68.9,29.97,South,180,10.4,10.4,66,0.00,CLR,,0.05,WeatherDisplay:10.37,2013-05-21 22:33:00,
2013-05-21 18:38:00,81.3,68.9,29.97,SW,225,5.9,5.9,66,0.00,CLR,,0.05,WeatherDisplay:10.37,2013-05-21 22:38:00,
2013-05-21 18:43:00,81.3,68.9,29.97,South,180,7.6,7.6,66,0.00,CLR,,0.05,WeatherDisplay:10.37,2013-05-21 22:43:00,
2013-05-21 18:48:00,81.3,68.9,29.97,SE,135,8.1,8.1,66,0.00,CLR,,0.05,WeatherDisplay:10.37,2013-05-21 22:48:00,
2013-05-21 18:53:00,81.0,68.5,29.97,East,90,6.9,6.9,66,0.00,CLR,,0.05,WeatherDisplay:10.37,2013-05-21 22:53:00,
2013-05-21 18:58:00,81.0,68.5,29.97,South,180,5.9,5.9,66,0.00,CLR,,0.05,WeatherDisplay:10.37,2013-05-21 22:58:00,
2013-05-21 19:03:00,80.8,68.8,30.00,South,180,5.8,5.8,67,0.00,CLR,,0.05,WeatherDisplay:10.37,2013-05-21 23:03:00,
2013-05-21 19:08:00,80.6,68.6,30.00,SW,225,8.1,8.1,67,0.00,CLR,,0.05,WeatherDisplay:10.37,2013-05-21 23:08:00,
2013-05-21 19:14:00,80.6,69.1,30.00,West,270,4.3,5.4,68,0.00,CLR,,0.05,WeatherDisplay:10.37,2013-05-21 23:14:00,
2013-05-21 19:19:00,80.4,68.9,30.00,ESE,112,5.8,5.8,68,0.00,CLR,,0.05,WeatherDisplay:10.37,2013-05-21 23:19:00,
2013-05-21 19:24:00,80.2,69.1,30.00,ESE,112,10.4,10.4,69,0.00,CLR,,0.05,WeatherDisplay:10.37,2013-05-21 23:24:00,
2013-05-21 19:29:00,80.2,69.1,30.00,South,180,5.8,5.8,69,0.00,CLR,,0.05,WeatherDisplay:10.37,2013-05-21 23:29:00,
2013-05-21 19:34:00,80.2,69.6,30.00,SSE,158,5.4,5.4,70,0.00,CLR,,0.05,WeatherDisplay:10.37,2013-05-21 23:34:00,
2013-05-21 19:40:00,79.9,69.6,30.00,NE,45,6.9,6.9,71,0.00,CLR,,0.05,WeatherDisplay:10.37,2013-05-21 23:40:00,
2013-05-21 19:45:00,79.9,69.6,30.00,South,180,6.9,6.9,71,0.00,CLR,,0.05,WeatherDisplay:10.37,2013-05-21 23:45:00,
2013-05-21 19:50:00,79.7,69.5,30.00,SE,135,8.1,8.1,71,0.00,CLR,,0.05,WeatherDisplay:10.37,2013-05-21 23:50:00,
2013-05-21 19:55:00,79.9,69.2,30.00,West,270,5.8,5.8,70,0.00,CLR,,0.05,WeatherDisplay:10.37,2013-05-21 23:55:00,
2013-05-21 20:00:00,79.7,69.0,30.00,ESE,112,4.9,4.9,70,0.00,CLR,,0.05,WeatherDisplay:10.37,2013-05-22 00:00:00,
2013-05-21 20:05:00,79.7,69.0,30.03,West,270,9.2,9.2,70,0.00,CLR,,0.05,WeatherDisplay:10.37,2013-05-22 00:05:00,
2013-05-21 20:10:00,79.9,68.8,30.03,SE,135,4.6,4.6,69,0.00,CLR,,0.05,WeatherDisplay:10.37,2013-05-22 00:10:00,
2013-05-21 20:15:00,79.5,68.5,30.03,NE,37,1.0,6.0,69,0.00,RA,,0.05,WeatherDisplay:10.37,2013-05-22 00:15:00,
2013-05-21 20:21:00,79.5,68.9,30.00,NW,315,5.8,5.8,70,0.00,CLR,,0.05,WeatherDisplay:10.37,2013-05-22 00:21:00,
2013-05-21 20:26:00,79.3,68.7,30.00,SE,135,8.1,8.1,70,0.00,CLR,,0.05,WeatherDisplay:10.37,2013-05-22 00:26:00,
2013-05-21 20:31:00,79.3,68.7,30.00,ESE,122,2.0,6.0,70,0.00,RA,,0.05,WeatherDisplay:10.37,2013-05-22 00:31:00,
2013-05-21 20:36:00,79.2,68.9,30.00,South,180,3.5,3.5,71,0.00,CLR,,0.05,WeatherDisplay:10.37,2013-05-22 00:36:00,
2013-05-21 20:41:00,79.0,69.2,30.00,West,270,5.8,5.8,72,0.00,CLR,,0.05,WeatherDisplay:10.37,2013-05-22 00:41:00,
2013-05-21 20:46:00,79.0,69.2,30.00,East,90,8.5,8.5,72,0.00,CLR,,0.05,WeatherDisplay:10.37,2013-05-22 00:46:00,
2013-05-21 20:51:00,79.0,69.2,30.00,East,90,9.2,9.2,72,0.00,CLR,,0.05,WeatherDisplay:10.37,2013-05-22 00:51:00,
2013-05-21 20:56:00,79.0,69.2,30.00,SSW,202,6.9,6.9,72,0.00,CLR,,0.05,WeatherDisplay:10.37,2013-05-22 00:56:00,
2013-05-21 21:02:00,79.0,69.2,30.00,South,180,10.4,10.4,72,0.00,CLR,,0.05,WeatherDisplay:10.37,2013-05-22 01:02:00,
2013-05-21 21:07:00,79.7,69.9,30.00,South,180,10.7,10.7,72,0.00,CLR,,0.05,WeatherDisplay:10.37,2013-05-22 01:07:00,
2013-05-21 21:12:00,79.7,69.9,30.00,SE,135,5.8,5.8,72,0.00,CLR,,0.05,WeatherDisplay:10.37,2013-05-22 01:12:00,
2013-05-21 21:17:00,79.7,69.9,30.00,NNE,22,5.8,5.8,72,0.00,CLR,,0.05,WeatherDisplay:10.37,2013-05-22 01:17:00,
2013-05-21 21:22:00,79.7,69.9,30.00,SE,135,5.8,5.8,72,0.00,CLR,,0.05,WeatherDisplay:10.37,2013-05-22 01:22:00,
2013-05-21 21:27:00,79.0,69.6,30.00,SE,135,6.9,6.9,73,0.00,CLR,,0.05,WeatherDisplay:10.37,2013-05-22 01:27:00,
2013-05-21 21:32:00,78.8,69.8,30.00,ESE,112,10.4,10.4,74,0.00,CLR,,0.05,WeatherDisplay:10.37,2013-05-22 01:32:00,
2013-05-21 21:37:00,78.6,70.0,30.00,SE,135,6.0,6.0,75,0.00,CLR,,0.05,WeatherDisplay:10.37,2013-05-22 01:37:00,
2013-05-21 21:42:00,78.4,69.9,30.00,SW,225,5.8,5.8,75,0.00,CLR,,0.05,WeatherDisplay:10.37,2013-05-22 01:42:00,
2013-05-21 21:47:00,78.4,69.9,30.00,North,0,3.6,3.6,75,0.00,CLR,,0.05,WeatherDisplay:10.37,2013-05-22 01:47:00,
2013-05-21 21:52:00,78.4,69.9,30.00,SE,135,6.9,6.9,75,0.00,CLR,,0.05,WeatherDisplay:10.37,2013-05-22 01:52:00,
2013-05-21 21:58:00,78.4,69.9,30.00,NE,45,8.1,8.1,75,0.00,CLR,,0.05,WeatherDisplay:10.37,2013-05-22 01:58:00,
2013-05-21 22:03:00,78.6,70.0,29.97,SSW,202,9.2,9.2,75,0.00,CLR,,0.05,WeatherDisplay:10.37,2013-05-22 02:03:00,
2013-05-21 22:08:00,78.6,70.0,29.97,SW,225,10.2,10.2,75,0.00,CLR,,0.05,WeatherDisplay:10.37,2013-05-22 02:08:00,
2013-05-21 22:13:00,78.8,70.2,29.97,SE,135,6.9,6.9,75,0.00,CLR,,0.05,WeatherDisplay:10.37,2013-05-22 02:13:00,
2013-05-21 22:19:00,78.8,70.6,29.97,SW,225,4.7,4.7,76,0.00,CLR,,0.05,WeatherDisplay:10.37,2013-05-22 02:19:00,
2013-05-21 22:24:00,78.4,70.2,29.97,SSW,202,8.1,8.1,76,0.00,CLR,,0.05,WeatherDisplay:10.37,2013-05-22 02:24:00,
2013-05-21 22:29:00,78.4,70.2,29.97,SE,135,5.8,5.8,76,0.00,CLR,,0.05,WeatherDisplay:10.37,2013-05-22 02:29:00,
2013-05-21 22:34:00,78.4,70.6,29.97,SE,135,3.5,3.5,77,0.00,CLR,,0.05,WeatherDisplay:10.37,2013-05-22 02:34:00,
2013-05-21 22:39:00,78.4,70.6,29.97,East,90,7.4,7.4,77,0.00,CLR,,0.05,WeatherDisplay:10.37,2013-05-22 02:39:00,
2013-05-21 22:44:00,78.4,70.6,29.97,SE,135,5.9,5.9,77,0.00,CLR,,0.05,WeatherDisplay:10.37,2013-05-22 02:44:00,
2013-05-21 22:49:00,78.4,70.2,29.97,NE,45,9.2,9.2,76,0.00,CLR,,0.05,WeatherDisplay:10.37,2013-05-22 02:49:00,
2013-05-21 22:54:00,78.3,70.1,30.00,SSE,158,5.8,5.8,76,0.00,CLR,,0.05,WeatherDisplay:10.37,2013-05-22 02:54:00,
2013-05-21 23:00:00,78.4,69.9,30.00,SW,225,7.6,7.6,75,0.00,CLR,,0.05,WeatherDisplay:10.37,2013-05-22 03:00:00,
2013-05-21 23:05:00,78.3,69.7,30.00,SE,135,8.1,8.1,75,0.00,CLR,,0.05,WeatherDisplay:10.37,2013-05-22 03:05:00,
2013-05-21 23:10:00,78.4,69.5,30.00,SSE,158,6.9,6.9,74,0.00,CLR,,0.05,WeatherDisplay:10.37,2013-05-22 03:10:00,
2013-05-21 23:15:00,78.3,69.3,30.00,NE,45,9.2,9.2,74,0.00,CLR,,0.05,WeatherDisplay:10.37,2013-05-22 03:15:00,
2013-05-21 23:20:00,78.4,69.5,30.00,South,180,8.1,8.1,74,0.00,CLR,,0.05,WeatherDisplay:10.37,2013-05-22 03:20:00,
2013-05-21 23:25:00,78.6,69.6,30.00,NE,45,6.9,6.9,74,0.00,CLR,,0.05,WeatherDisplay:10.37,2013-05-22 03:25:00,
2013-05-21 23:31:00,78.6,69.6,30.00,South,180,5.8,5.8,74,0.00,CLR,,0.05,WeatherDisplay:10.37,2013-05-22 03:31:00,
2013-05-21 23:36:00,78.6,69.6,30.00,South,180,6.9,6.9,74,0.00,CLR,,0.05,WeatherDisplay:10.37,2013-05-22 03:36:00,
2013-05-21 23:41:00,78.6,69.6,30.00,East,90,5.8,5.8,74,0.00,CLR,,0.05,WeatherDisplay:10.37,2013-05-22 03:41:00,
2013-05-21 23:46:00,78.4,69.5,29.97,SE,135,8.1,8.1,74,0.00,CLR,,0.05,WeatherDisplay:10.37,2013-05-22 03:46:00,
2013-05-21 23:51:00,78.4,69.5,29.97,ESE,112,8.1,8.1,74,0.00,CLR,,0.05,WeatherDisplay:10.37,2013-05-22 03:51:00,
2013-05-21 23:56:00,78.3,69.3,29.97,SE,135,5.8,5.8,74,0.00,CLR,,0.05,WeatherDisplay:10.37,2013-05-22 03:56:00,